• In Uzbekistan
  • List of Countries
  • For 7 days
  • Water Temperature
  • Satellite Maps
  • Weather Map
  • Weather Widgets
  • user-avatar
    Login

    Hourly Weather Batken

    Today, 24 January, Thursday

    Time Temperature Precipitation Wind Pressure Humidity
    00:00 -3°C° 0 mm 2 mps 674 mmHg 57%
    01:00 -3°C° 0 mm 2 mps 674 mmHg 56%
    02:00 -3°C° 0 mm 2 mps 674 mmHg 54%
    03:00 -3°C° 0 mm 2 mps 675 mmHg 54%
    04:00 -3°C° 0 mm 2 mps 675 mmHg 53%
    05:00 -4°C° 0 mm 2 mps 676 mmHg 52%
    06:00 -4°C° 0 mm 2 mps 676 mmHg 51%
    07:00 -4°C° 0 mm 2 mps 676 mmHg 51%
    08:00 -4°C° 0 mm 2 mps 677 mmHg 50%
    09:00 -2°C° 0 mm 2 mps 677 mmHg 49%
    10:00 +1°C° 0 mm 1 mps 677 mmHg 47%
    11:00 +3°C° 0 mm 1 mps 677 mmHg 46%
    12:00 +3°C° 0 mm 1 mps 677 mmHg 49%
    13:00 +2°C° 0 mm 2 mps 676 mmHg 52%
    14:00 +2°C° 0 mm 2 mps 676 mmHg 55%
    15:00 +2°C° 0 mm 1 mps 676 mmHg 59%
    16:00 +2°C° 0 mm 1 mps 676 mmHg 63%
    17:00 +1°C° 0 mm 1 mps 676 mmHg 67%
    18:00 0°C° 0 mm 1 mps 677 mmHg 64%
    19:00 0°C° 0 mm 1 mps 678 mmHg 61%
    20:00 -2°C° 0 mm 2 mps 678 mmHg 58%
    21:00 -3°C° 0 mm 2 mps 678 mmHg 56%
    22:00 -3°C° 0 mm 2 mps 679 mmHg 53%
    23:00 -3°C° 0 mm 2 mps 679 mmHg 51%

    Tomorrow, 25 January, Friday

    Time Temperature Precipitation Wind Pressure Humidity
    00:00 -3°C° 0 mm 2 mps 679 mmHg 49%
    01:00 -3°C° 0 mm 2 mps 678 mmHg 48%
    02:00 -3°C° 0 mm 2 mps 678 mmHg 47%
    03:00 -4°C° 0 mm 2 mps 678 mmHg 46%
    04:00 -4°C° 0 mm 2 mps 678 mmHg 45%
    05:00 -4°C° 0 mm 2 mps 677 mmHg 44%
    06:00 -4°C° 0 mm 2 mps 677 mmHg 43%
    07:00 -4°C° 0 mm 2 mps 677 mmHg 42%
    08:00 -4°C° 0 mm 2 mps 677 mmHg 41%
    09:00 -3°C° 0 mm 2 mps 677 mmHg 40%
    10:00 -1°C° 0 mm 2 mps 676 mmHg 39%
    11:00 +1°C° 0 mm 2 mps 675 mmHg 39%
    12:00 +1°C° 0 mm 2 mps 675 mmHg 39%
    13:00 +2°C° 0 mm 2 mps 674 mmHg 40%
    14:00 +1°C° 0 mm 3 mps 673 mmHg 41%
    15:00 +1°C° 0 mm 2 mps 673 mmHg 44%
    16:00 +1°C° 0 mm 2 mps 673 mmHg 48%
    17:00 -1°C° 0 mm 2 mps 673 mmHg 51%
    18:00 -2°C° 0 mm 2 mps 674 mmHg 48%
    19:00 -2°C° 0 mm 2 mps 675 mmHg 46%
    20:00 -3°C° 0 mm 2 mps 675 mmHg 43%
    21:00 -3°C° 0 mm 2 mps 675 mmHg 40%
    22:00 -3°C° 0 mm 2 mps 675 mmHg 38%
    23:00 -3°C° 0 mm 2 mps 675 mmHg 35%

    Day after tomorrow, 26 January, Saturday

    Time Temperature Precipitation Wind Pressure Humidity
    00:00 -3°C° 0 mm 2 mps 675 mmHg 34%
    01:00 -3°C° 0 mm 2 mps 675 mmHg 34%
    02:00 -3°C° 0 mm 2 mps 675 mmHg 33%
    03:00 -3°C° 0 mm 2 mps 675 mmHg 34%
    04:00 -4°C° 0 mm 2 mps 675 mmHg 34%
    05:00 -4°C° 0 mm 2 mps 675 mmHg 34%
    06:00 -4°C° 0 mm 2 mps 675 mmHg 34%
    07:00 -4°C° 0 mm 2 mps 675 mmHg 34%
    08:00 -4°C° 0 mm 2 mps 675 mmHg 34%
    09:00 -2°C° 0 mm 2 mps 675 mmHg 35%
    10:00 -1°C° 0 mm 2 mps 675 mmHg 35%
    11:00 +2°C° 0 mm 2 mps 675 mmHg 35%
    12:00 +2°C° 0 mm 2 mps 674 mmHg 35%
    13:00 +3°C° 0 mm 2 mps 674 mmHg 35%
    14:00 +3°C° 0 mm 2 mps 673 mmHg 35%
    15:00 +2°C° 0 mm 2 mps 674 mmHg 39%
    16:00 +1°C° 0 mm 2 mps 674 mmHg 42%
    17:00 +1°C° 0 mm 1 mps 674 mmHg 46%
    18:00 -1°C° 0 mm 2 mps 675 mmHg 43%
    19:00 -2°C° 0 mm 2 mps 675 mmHg 40%
    20:00 -2°C° 0 mm 2 mps 676 mmHg 37%
    21:00 -3°C° 0 mm 2 mps 676 mmHg 35%
    22:00 -3°C° 0 mm 2 mps 676 mmHg 34%
    23:00 -3°C° 0 mm 2 mps 676 mmHg 32%

    27 January, Sunday

    Time Temperature Precipitation Wind Pressure Humidity
    00:00 -3°C° 0 mm 2 mps 677 mmHg 32%
    01:00 -4°C° 0 mm 3 mps 677 mmHg 31%
    02:00 -4°C° 0 mm 3 mps 677 mmHg 31%
    03:00 -4°C° 0 mm 3 mps 677 mmHg 31%
    04:00 -4°C° 0 mm 3 mps 677 mmHg 31%
    05:00 -4°C° 0 mm 3 mps 677 mmHg 31%
    06:00 -3°C° 0 mm 2 mps 677 mmHg 31%
    07:00 -3°C° 0 mm 2 mps 677 mmHg 31%
    08:00 -3°C° 0 mm 2 mps 677 mmHg 31%
    09:00 -2°C° 0 mm 2 mps 677 mmHg 31%
    10:00 +1°C° 0 mm 2 mps 677 mmHg 32%
    11:00 +2°C° 0 mm 2 mps 676 mmHg 32%
    12:00 +3°C° 0 mm 2 mps 676 mmHg 33%
    13:00 +3°C° 0 mm 2 mps 675 mmHg 33%
    14:00 +4°C° 0 mm 2 mps 675 mmHg 33%
    15:00 +3°C° 0 mm 2 mps 675 mmHg 37%
    16:00 +2°C° 0 mm 2 mps 675 mmHg 42%
    17:00 +2°C° 0 mm 1 mps 675 mmHg 46%
    18:00 -1°C° 0 mm 2 mps 675 mmHg 44%
    19:00 -1°C° 0 mm 2 mps 676 mmHg 42%
    20:00 -2°C° 0 mm 2 mps 676 mmHg 41%
    21:00 -2°C° 0 mm 2 mps 676 mmHg 39%
    22:00 -2°C° 0 mm 2 mps 676 mmHg 38%
    23:00 -2°C° 0 mm 2 mps 676 mmHg 37%

    28 January, Monday

    Time Temperature Precipitation Wind Pressure Humidity
    00:00 -2°C° 0 mm 2 mps 676 mmHg 37%
    01:00 -1°C° 0 mm 2 mps 676 mmHg 38%
    02:00 -1°C° 0 mm 2 mps 676 mmHg 38%
    03:00 -1°C° 0 mm 2 mps 676 mmHg 39%
    04:00 -1°C° 0 mm 2 mps 676 mmHg 40%
    05:00 -1°C° 0 mm 2 mps 676 mmHg 41%
    06:00 -1°C° 0 mm 2 mps 676 mmHg 41%
    07:00 -1°C° 0 mm 2 mps 676 mmHg 41%
    08:00 -1°C° 0 mm 2 mps 676 mmHg 41%
    09:00 +1°C° 0 mm 2 mps 676 mmHg 40%
    10:00 +3°C° 0 mm 2 mps 676 mmHg 39%
    11:00 +4°C° 0 mm 2 mps 675 mmHg 38%
    12:00 +4°C° 0 mm 2 mps 675 mmHg 38%
    13:00 +5°C° 0 mm 2 mps 674 mmHg 38%
    14:00 +5°C° 0 mm 2 mps 674 mmHg 38%
    15:00 +4°C° 0 mm 2 mps 674 mmHg 41%
    16:00 +3°C° 0 mm 2 mps 674 mmHg 45%
    17:00 +3°C° 0 mm 2 mps 674 mmHg 48%
    18:00 +2°C° 0 mm 2 mps 674 mmHg 47%
    19:00 +2°C° 0 mm 2 mps 674 mmHg 46%
    20:00 +2°C° 0 mm 2 mps 674 mmHg 45%
    21:00 +2°C° 0 mm 2 mps 674 mmHg 46%
    22:00 +2°C° 0 mm 2 mps 674 mmHg 47%
    23:00 +1°C° 0 mm 2 mps 673 mmHg 48%

    29 January, Tuesday

    Time Temperature Precipitation Wind Pressure Humidity
    00:00 +2°C° 0 mm 2 mps 673 mmHg 49%
    01:00 +2°C° 0 mm 2 mps 673 mmHg 50%
    02:00 +2°C° 0 mm 2 mps 672 mmHg 50%
    03:00 +2°C° 0 mm 2 mps 672 mmHg 49%
    04:00 +2°C° 0 mm 2 mps 672 mmHg 48%
    05:00 +2°C° 0 mm 2 mps 671 mmHg 47%
    06:00 +2°C° 0 mm 2 mps 671 mmHg 49%
    07:00 +2°C° 0 mm 2 mps 671 mmHg 50%
    08:00 +4°C° 0 mm 1 mps 671 mmHg 51%
    09:00 +4°C° 0 mm 1 mps 670 mmHg 52%
    10:00 +5°C° 0 mm 1 mps 670 mmHg 52%
    11:00 +6°C° 0 mm 1 mps 670 mmHg 53%
    12:00 +6°C° 0 mm 2 mps 669 mmHg 54%
    13:00 +6°C° 0 mm 2 mps 668 mmHg 54%
    14:00 +7°C° 0 mm 2 mps 668 mmHg 54%
    15:00 +6°C° 0 mm 2 mps 667 mmHg 57%
    16:00 +6°C° 0 mm 1 mps 667 mmHg 61%
    17:00 +5°C° 0 mm 1 mps 666 mmHg 64%
    18:00 +5°C° 0 mm 1 mps 666 mmHg 64%
    19:00 +4°C° 0 mm 1 mps 667 mmHg 63%
    20:00 +4°C° 0 mm 1 mps 667 mmHg 63%
    21:00 +4°C° 0 mm 1 mps 666 mmHg 63%
    22:00 +4°C° 0 mm 1 mps 666 mmHg 63%
    23:00 +4°C° 0 mm 1 mps 666 mmHg 62%
    Show more